EDV5103 KLGA-KRDU

Flight info

Callsign EDV5103
Flight time 1h 19m
Altitude 38000
Route WHITE Q409 VILLS NALES Q141 HOUKY TAQLE3
Aircraft CRJ9/M-SDFGIRWY/S

Departure

Time 2026-05-07 00:01
Airport LaGuardia Airport (KLGA)

Arrival

Time 2026-05-07 01:21
Airport Raleigh-Durham International Airport (KRDU)
Time Latitude Longitude Altitude Speed Heading
2026-05-06 23:40 40.77148 -73.86380 18 ft 0 kts 132°
2026-05-06 23:40 40.77147 -73.86379 18 ft 0 kts 132°
2026-05-06 23:42 40.77148 -73.86380 18 ft 9 kts 132°
2026-05-06 23:42 40.77147 -73.86379 18 ft 0 kts 132°
2026-05-06 23:49 40.77148 -73.86380 18 ft 1 kts 132°
2026-05-06 23:49 40.77158 -73.86394 18 ft 3 kts 132°
2026-05-06 23:49 40.77167 -73.86413 19 ft 3 kts 99°
2026-05-06 23:49 40.77163 -73.86426 20 ft 2 kts 44°
2026-05-06 23:50 40.77164 -73.86426 20 ft 2 kts 41°
2026-05-06 23:50 40.77198 -73.86409 18 ft 3 kts
2026-05-06 23:50 40.77218 -73.86406 18 ft 3 kts
2026-05-06 23:51 40.77239 -73.86403 18 ft 3 kts
2026-05-06 23:51 40.77258 -73.86400 18 ft 2 kts
2026-05-06 23:51 40.77263 -73.86399 18 ft 0 kts
2026-05-06 23:55 40.77264 -73.86399 18 ft 2 kts
2026-05-06 23:55 40.77313 -73.86393 14 ft 9 kts 359°
2026-05-06 23:55 40.77364 -73.86442 11 ft 10 kts 308°
2026-05-06 23:56 40.77403 -73.86519 11 ft 11 kts 301°
2026-05-06 23:56 40.77466 -73.86572 10 ft 12 kts 349°
2026-05-06 23:56 40.77520 -73.86612 10 ft 10 kts 310°
2026-05-06 23:56 40.77571 -73.86710 10 ft 16 kts 302°
2026-05-06 23:57 40.77642 -73.86859 10 ft 21 kts 302°
2026-05-06 23:57 40.77722 -73.87025 11 ft 22 kts 302°
2026-05-06 23:57 40.77794 -73.87174 12 ft 19 kts 302°
2026-05-06 23:57 40.77863 -73.87321 12 ft 19 kts 301°
2026-05-06 23:58 40.77905 -73.87410 13 ft 4 kts 301°
2026-05-06 23:58 40.77917 -73.87433 13 ft 1 kts 306°
2026-05-06 23:58 40.77922 -73.87443 14 ft 0 kts 306°
2026-05-06 23:59 40.77934 -73.87470 14 ft 8 kts 300°
2026-05-06 23:59 40.77976 -73.87564 14 ft 16 kts 302°
2026-05-06 23:59 40.78051 -73.87718 16 ft 21 kts 303°
2026-05-07 00:00 40.78128 -73.87846 16 ft 13 kts 333°
2026-05-07 00:00 40.78203 -73.87831 17 ft 10 kts 65°
2026-05-07 00:00 40.78185 -73.87757 15 ft 19 kts 122°
2026-05-07 00:00 40.77963 -73.87291 13 ft 101 kts 122°
2026-05-07 00:01 40.77458 -73.86248 36 ft 164 kts 122°
2026-05-07 00:01 40.76784 -73.84869 526 ft 188 kts 128°
2026-05-07 00:01 40.75794 -73.83715 1355 ft 184 kts 163°
2026-05-07 00:01 40.74611 -73.83135 2339 ft 188 kts 165°
2026-05-07 00:02 40.73335 -73.82385 2914 ft 212 kts 163°
2026-05-07 00:02 40.71880 -73.81772 3402 ft 230 kts 187°
2026-05-07 00:02 40.70355 -73.82139 4587 ft 219 kts 203°
2026-05-07 00:02 40.68939 -73.82805 5697 ft 219 kts 207°
2026-05-07 00:03 40.67470 -73.83531 6544 ft 235 kts 209°
2026-05-07 00:03 40.65979 -73.84693 6737 ft 268 kts 221°
2026-05-07 00:03 40.64516 -73.86177 7859 ft 256 kts 223°
2026-05-07 00:03 40.63135 -73.87612 9003 ft 255 kts 224°
2026-05-07 00:04 40.61659 -73.89135 9172 ft 289 kts 222°
2026-05-07 00:04 40.59884 -73.90728 9111 ft 327 kts 216°
2026-05-07 00:04 40.57810 -73.92239 9550 ft 344 kts 212°
2026-05-07 00:04 40.55731 -73.93569 11142 ft 323 kts 212°
2026-05-07 00:05 40.53754 -73.94823 12579 ft 309 kts 212°
2026-05-07 00:05 40.51856 -73.96050 13772 ft 303 kts 213°
2026-05-07 00:05 40.49959 -73.97322 14519 ft 307 kts 214°
2026-05-07 00:05 40.48067 -73.98606 15218 ft 312 kts 214°
2026-05-07 00:06 40.46124 -73.99925 15911 ft 317 kts 214°
2026-05-07 00:06 40.44152 -74.01263 16615 ft 321 kts 214°
2026-05-07 00:06 40.42139 -74.02628 17235 ft 327 kts 214°
2026-05-07 00:06 40.40092 -74.04004 17905 ft 331 kts 215°
2026-05-07 00:07 40.38029 -74.05387 18527 ft 335 kts 215°
2026-05-07 00:07 40.35942 -74.06783 19178 ft 337 kts 216°
2026-05-07 00:07 40.33849 -74.08177 19832 ft 338 kts 216°
2026-05-07 00:07 40.31746 -74.09581 20459 ft 339 kts 217°
2026-05-07 00:08 40.29641 -74.10997 21077 ft 341 kts 217°
2026-05-07 00:08 40.27532 -74.12430 21662 ft 342 kts 218°
2026-05-07 00:08 40.25440 -74.13859 22226 ft 344 kts 218°
2026-05-07 00:08 40.23280 -74.15333 22669 ft 348 kts 218°
2026-05-07 00:09 40.21148 -74.16770 23233 ft 350 kts 218°
2026-05-07 00:09 40.18942 -74.18240 23716 ft 352 kts 218°
2026-05-07 00:09 40.16785 -74.19684 24149 ft 354 kts 218°
2026-05-07 00:09 40.14581 -74.21157 24577 ft 356 kts 218°
2026-05-07 00:10 40.12369 -74.22636 24994 ft 357 kts 218°
2026-05-07 00:10 40.10140 -74.24129 25197 ft 366 kts 218°
2026-05-07 00:10 40.07839 -74.25685 25207 ft 379 kts 218°
2026-05-07 00:10 40.05470 -74.27302 25219 ft 390 kts 218°
2026-05-07 00:11 40.03039 -74.28986 25194 ft 402 kts 218°
2026-05-07 00:11 40.00521 -74.30689 25332 ft 410 kts 217°
2026-05-07 00:11 39.97970 -74.32391 25625 ft 413 kts 217°
2026-05-07 00:11 39.95399 -74.34103 25763 ft 416 kts 217°
2026-05-07 00:12 39.92836 -74.35804 25861 ft 419 kts 217°
2026-05-07 00:12 39.90225 -74.37524 25866 ft 422 kts 217°
2026-05-07 00:12 39.87589 -74.39246 25870 ft 425 kts 217°
2026-05-07 00:12 39.84938 -74.40984 25839 ft 427 kts 217°
2026-05-07 00:13 39.82420 -74.42881 25837 ft 408 kts 225°
2026-05-07 00:13 39.80248 -74.45164 25851 ft 396 kts 229°
2026-05-07 00:13 39.78237 -74.47567 25861 ft 388 kts 232°
2026-05-07 00:13 39.76352 -74.50056 25863 ft 382 kts 234°
2026-05-07 00:14 39.74531 -74.52538 25852 ft 378 kts 234°
2026-05-07 00:14 39.72717 -74.54994 25856 ft 374 kts 234°
2026-05-07 00:14 39.70927 -74.57421 25855 ft 371 kts 234°
2026-05-07 00:14 39.69149 -74.59827 25859 ft 368 kts 234°
2026-05-07 00:15 39.67361 -74.62202 25861 ft 365 kts 234°
2026-05-07 00:15 39.65585 -74.64546 25862 ft 362 kts 234°
2026-05-07 00:15 39.63846 -74.66840 25861 ft 360 kts 233°
2026-05-07 00:15 39.62098 -74.69148 25872 ft 357 kts 234°
2026-05-07 00:16 39.60359 -74.71438 25873 ft 355 kts 234°
2026-05-07 00:16 39.58612 -74.73740 25878 ft 362 kts 233°
2026-05-07 00:16 39.56827 -74.76093 25880 ft 370 kts 233°
2026-05-07 00:16 39.55002 -74.78499 25884 ft 378 kts 233°
2026-05-07 00:17 39.53140 -74.80948 25886 ft 385 kts 233°
2026-05-07 00:17 39.51242 -74.83443 25884 ft 392 kts 233°
2026-05-07 00:17 39.49315 -74.85968 25886 ft 395 kts 233°
2026-05-07 00:17 39.47383 -74.88501 25855 ft 395 kts 233°
2026-05-07 00:18 39.45475 -74.91006 25864 ft 396 kts 233°
2026-05-07 00:18 39.43535 -74.93541 25867 ft 396 kts 233°
2026-05-07 00:18 39.41590 -74.96084 25870 ft 397 kts 233°
2026-05-07 00:18 39.39647 -74.98627 25876 ft 398 kts 233°
2026-05-07 00:19 39.37696 -75.01171 25875 ft 399 kts 233°
2026-05-07 00:19 39.35740 -75.03719 25873 ft 399 kts 233°
2026-05-07 00:19 39.33784 -75.06270 25894 ft 400 kts 233°
2026-05-07 00:19 39.31818 -75.08817 25891 ft 400 kts 233°
2026-05-07 00:20 39.29852 -75.11378 25882 ft 400 kts 233°
2026-05-07 00:20 39.27888 -75.13936 25842 ft 400 kts 233°
2026-05-07 00:20 39.25948 -75.16454 25855 ft 401 kts 233°
2026-05-07 00:20 39.23980 -75.19013 25863 ft 401 kts 233°
2026-05-07 00:21 39.22010 -75.21566 25863 ft 401 kts 233°
2026-05-07 00:21 39.20040 -75.24115 25854 ft 401 kts 233°
2026-05-07 00:21 39.18070 -75.26669 25853 ft 401 kts 233°
2026-05-07 00:21 39.16095 -75.29219 25853 ft 402 kts 233°
2026-05-07 00:22 39.14122 -75.31769 25850 ft 402 kts 232°
2026-05-07 00:22 39.12146 -75.34321 25849 ft 402 kts 233°
2026-05-07 00:22 39.10170 -75.36870 25817 ft 402 kts 232°
2026-05-07 00:22 39.08219 -75.39391 25832 ft 402 kts 232°
2026-05-07 00:23 39.06238 -75.41941 25840 ft 402 kts 232°
2026-05-07 00:23 39.04251 -75.44485 25855 ft 403 kts 232°
2026-05-07 00:23 39.02266 -75.47032 25857 ft 403 kts 233°
2026-05-07 00:23 39.00285 -75.49586 25855 ft 403 kts 233°
2026-05-07 00:24 38.98295 -75.52138 25859 ft 403 kts 233°
2026-05-07 00:24 38.96306 -75.54690 25860 ft 403 kts 232°
2026-05-07 00:24 38.94322 -75.57236 25861 ft 403 kts 232°
2026-05-07 00:24 38.92356 -75.59749 25862 ft 403 kts 232°
2026-05-07 00:25 38.90397 -75.62319 25823 ft 400 kts 236°
2026-05-07 00:25 38.88720 -75.65131 25852 ft 395 kts 241°
2026-05-07 00:25 38.87218 -75.68065 25862 ft 393 kts 243°
2026-05-07 00:25 38.85835 -75.71089 25885 ft 392 kts 246°
2026-05-07 00:26 38.84511 -75.74149 25885 ft 392 kts 246°
2026-05-07 00:26 38.83192 -75.77208 25883 ft 392 kts 246°
2026-05-07 00:26 38.81841 -75.80253 25901 ft 393 kts 245°
2026-05-07 00:26 38.80472 -75.83293 25893 ft 393 kts 245°
2026-05-07 00:27 38.79110 -75.86305 25897 ft 393 kts 245°
2026-05-07 00:27 38.77736 -75.89340 25890 ft 393 kts 245°
2026-05-07 00:27 38.76362 -75.92378 25888 ft 393 kts 245°
2026-05-07 00:27 38.74946 -75.95396 25878 ft 396 kts 240°
2026-05-07 00:28 38.73077 -75.98047 25843 ft 405 kts 232°
2026-05-07 00:28 38.71074 -76.00576 25861 ft 404 kts 232°
2026-05-07 00:28 38.69015 -76.02982 25872 ft 409 kts 227°
2026-05-07 00:28 38.66746 -76.05226 25884 ft 413 kts 224°
2026-05-07 00:29 38.64418 -76.07385 25890 ft 413 kts 224°
2026-05-07 00:29 38.62087 -76.09548 25889 ft 413 kts 224°
2026-05-07 00:30 38.55208 -76.16191 25901 ft 413 kts 225°
2026-05-07 00:30 38.52918 -76.18412 25857 ft 413 kts 225°
2026-05-07 00:30 38.50633 -76.20634 25875 ft 413 kts 225°
2026-05-07 00:30 38.49118 -76.22100 25877 ft 413 kts 225°
2026-05-07 00:31 38.46818 -76.24317 25880 ft 413 kts 225°
2026-05-07 00:31 38.43780 -76.27252 25874 ft 414 kts 225°
2026-05-07 00:31 38.41486 -76.29467 25875 ft 414 kts 225°
2026-05-07 00:31 38.39188 -76.31681 25876 ft 414 kts 225°
2026-05-07 00:32 38.37634 -76.33181 25876 ft 414 kts 225°
2026-05-07 00:32 38.35360 -76.35367 25876 ft 414 kts 225°
2026-05-07 00:32 38.33057 -76.37571 25876 ft 415 kts 225°
2026-05-07 00:32 38.30758 -76.39784 25860 ft 414 kts 225°
2026-05-07 00:33 38.28552 -76.42113 25869 ft 409 kts 230°
2026-05-07 00:33 38.26550 -76.44657 25875 ft 406 kts 233°
2026-05-07 00:33 38.24644 -76.47320 25881 ft 406 kts 234°
2026-05-07 00:33 38.22743 -76.49981 25881 ft 406 kts 234°
2026-05-07 00:34 38.20843 -76.52635 25886 ft 407 kts 233°
2026-05-07 00:34 38.18901 -76.55263 25884 ft 407 kts 233°
2026-05-07 00:34 38.16952 -76.57882 25882 ft 407 kts 233°
2026-05-07 00:34 38.15001 -76.60492 25881 ft 407 kts 233°
2026-05-07 00:35 38.13049 -76.63108 25881 ft 407 kts 233°
2026-05-07 00:35 38.11117 -76.65693 25855 ft 408 kts 233°
2026-05-07 00:35 38.09164 -76.68305 25868 ft 408 kts 232°
2026-05-07 00:35 38.07209 -76.70916 25878 ft 408 kts 232°
2026-05-07 00:36 38.05250 -76.73533 25882 ft 409 kts 232°
2026-05-07 00:36 38.03277 -76.76152 25883 ft 409 kts 232°
2026-05-07 00:36 38.01313 -76.78770 25886 ft 409 kts 232°
2026-05-07 00:36 37.99325 -76.81364 25888 ft 413 kts 229°
2026-05-07 00:37 37.96907 -76.83438 25898 ft 425 kts 217°
2026-05-07 00:37 37.94342 -76.85213 25900 ft 426 kts 216°
2026-05-07 00:37 37.91700 -76.86930 25904 ft 430 kts 213°
2026-05-07 00:37 37.88888 -76.88332 25907 ft 436 kts 208°
2026-05-07 00:38 37.86003 -76.89558 25917 ft 437 kts 207°
2026-05-07 00:38 37.83113 -76.90770 25917 ft 437 kts 207°
2026-05-07 00:38 37.80238 -76.92011 25916 ft 436 kts 208°
2026-05-07 00:38 37.77383 -76.93309 25917 ft 436 kts 208°
2026-05-07 00:39 37.74523 -76.94605 25918 ft 436 kts 208°
2026-05-07 00:39 37.71665 -76.95898 25917 ft 437 kts 208°
2026-05-07 00:39 37.68805 -76.97193 25914 ft 437 kts 208°
2026-05-07 00:39 37.65943 -76.98487 25915 ft 437 kts 208°
2026-05-07 00:40 37.63078 -76.99779 25913 ft 437 kts 208°
2026-05-07 00:40 37.60212 -77.01071 25907 ft 437 kts 208°
2026-05-07 00:40 37.57353 -77.02362 25905 ft 437 kts 208°
2026-05-07 00:40 37.54478 -77.03656 25906 ft 437 kts 208°
2026-05-07 00:41 37.51605 -77.04942 25907 ft 438 kts 208°
2026-05-07 00:41 37.48774 -77.06209 25907 ft 437 kts 208°
2026-05-07 00:41 37.45902 -77.07515 25888 ft 437 kts 208°
2026-05-07 00:41 37.43037 -77.08810 25897 ft 438 kts 207°
2026-05-07 00:42 37.40152 -77.10096 25907 ft 439 kts 207°
2026-05-07 00:42 37.37278 -77.11386 25915 ft 439 kts 207°
2026-05-07 00:42 37.34391 -77.12669 25911 ft 439 kts 207°
2026-05-07 00:42 37.31556 -77.14065 25910 ft 436 kts 211°
2026-05-07 00:43 37.28818 -77.15663 25911 ft 433 kts 213°
2026-05-07 00:43 37.26109 -77.17333 25915 ft 433 kts 213°
2026-05-07 00:43 37.23397 -77.18990 25901 ft 434 kts 212°
2026-05-07 00:43 37.20650 -77.20591 25911 ft 436 kts 212°
2026-05-07 00:44 37.17925 -77.22165 25917 ft 436 kts 212°
2026-05-07 00:44 37.15181 -77.23798 25932 ft 435 kts 214°
2026-05-07 00:44 37.12425 -77.25397 25921 ft 443 kts 205°
2026-05-07 00:44 37.09329 -77.26027 25806 ft 464 kts 188°
2026-05-07 00:45 37.06065 -77.25508 25415 ft 483 kts 172°
2026-05-07 00:45 37.02927 -77.23847 25030 ft 500 kts 156°
2026-05-07 00:45 37.00121 -77.21198 24620 ft 510 kts 143°
2026-05-07 00:45 36.97530 -77.18202 24261 ft 503 kts 141°
2026-05-07 00:46 36.95024 -77.15172 23886 ft 501 kts 140°
2026-05-07 00:46 36.92569 -77.12146 23497 ft 483 kts 140°
2026-05-07 00:46 36.90268 -77.09265 23025 ft 455 kts 139°
2026-05-07 00:46 36.88100 -77.06519 22551 ft 432 kts 139°
2026-05-07 00:47 36.86066 -77.03919 22292 ft 413 kts 139°
2026-05-07 00:47 36.84094 -77.01384 22184 ft 399 kts 139°
2026-05-07 00:47 36.82203 -76.98936 22156 ft 386 kts 139°
2026-05-07 00:47 36.80356 -76.96540 22145 ft 381 kts 139°
2026-05-07 00:48 36.78508 -76.94141 22148 ft 385 kts 139°
2026-05-07 00:48 36.76641 -76.91722 22158 ft 389 kts 139°
2026-05-07 00:48 36.74748 -76.89273 22145 ft 393 kts 139°
2026-05-07 00:48 36.72895 -76.86813 22139 ft 399 kts 132°
2026-05-07 00:49 36.71518 -76.83718 22146 ft 409 kts 111°
2026-05-07 00:49 36.70987 -76.80275 22171 ft 413 kts 94°
2026-05-07 00:49 36.70611 -76.76720 22179 ft 414 kts 102°
2026-05-07 00:49 36.70406 -76.73145 22175 ft 414 kts 83°
2026-05-07 00:50 36.71091 -76.69699 22185 ft 408 kts 63°
2026-05-07 00:50 36.72571 -76.66746 22211 ft 397 kts 42°
2026-05-07 00:50 36.74645 -76.64593 22206 ft 380 kts 21°
2026-05-07 00:50 36.77047 -76.63472 22200 ft 361 kts
2026-05-07 00:51 36.79467 -76.63484 22200 ft 339 kts 339°
2026-05-07 00:51 36.81566 -76.64590 22202 ft 320 kts 317°
2026-05-07 00:51 36.83124 -76.66493 22206 ft 310 kts 304°
2026-05-07 00:51 36.84168 -76.68747 22203 ft 302 kts 290°
2026-05-07 00:52 36.85055 -76.71134 22170 ft 301 kts 284°
2026-05-07 00:52 36.85126 -76.73691 22188 ft 299 kts 256°
2026-05-07 00:52 36.84066 -76.75950 22216 ft 310 kts 234°
2026-05-07 00:52 36.82612 -76.77982 22197 ft 315 kts 234°
2026-05-07 00:53 36.81219 -76.80108 22178 ft 318 kts 238°
2026-05-07 00:53 36.79949 -76.82377 22173 ft 320 kts 242°
2026-05-07 00:53 36.78802 -76.84766 22163 ft 321 kts 244°
2026-05-07 00:53 36.77719 -76.87205 22162 ft 321 kts 245°
2026-05-07 00:54 36.76645 -76.89644 22174 ft 321 kts 245°
2026-05-07 00:54 36.75562 -76.92080 22166 ft 321 kts 245°
2026-05-07 00:54 36.74478 -76.94511 22153 ft 320 kts 244°
2026-05-07 00:54 36.73399 -76.96899 22158 ft 320 kts 244°
2026-05-07 00:55 36.72294 -76.99316 22161 ft 320 kts 244°
2026-05-07 00:55 36.71189 -77.01725 22165 ft 320 kts 244°
2026-05-07 00:55 36.70083 -77.04140 22152 ft 320 kts 244°
2026-05-07 00:55 36.68976 -77.06549 22148 ft 320 kts 244°
2026-05-07 00:56 36.67869 -77.08957 22143 ft 320 kts 244°
2026-05-07 00:56 36.66762 -77.11367 22141 ft 320 kts 244°
2026-05-07 00:56 36.65650 -77.13776 22142 ft 320 kts 244°
2026-05-07 00:56 36.64540 -77.16188 21988 ft 324 kts 244°
2026-05-07 00:57 36.63410 -77.18643 21775 ft 336 kts 244°
2026-05-07 00:57 36.62215 -77.21230 21562 ft 351 kts 244°
2026-05-07 00:57 36.60967 -77.23932 21353 ft 366 kts 244°
2026-05-07 00:57 36.59680 -77.26716 21131 ft 374 kts 243°
2026-05-07 00:58 36.58378 -77.29535 20892 ft 376 kts 243°
2026-05-07 00:58 36.57065 -77.32374 20649 ft 379 kts 243°
2026-05-07 00:58 36.55743 -77.35221 20366 ft 381 kts 244°
2026-05-07 00:58 36.54431 -77.38055 20120 ft 383 kts 244°
2026-05-07 00:59 36.51830 -77.43646 19623 ft 363 kts 244°
2026-05-07 00:59 36.50579 -77.46334 19388 ft 355 kts 244°
2026-05-07 00:59 36.49350 -77.48981 19155 ft 355 kts 244°
2026-05-07 01:00 36.48099 -77.51667 18921 ft 362 kts 244°
2026-05-07 01:00 36.46832 -77.54392 18696 ft 367 kts 244°
2026-05-07 01:00 36.45544 -77.57152 18472 ft 371 kts 244°
2026-05-07 01:00 36.44241 -77.59944 18244 ft 375 kts 244°
2026-05-07 01:01 36.42949 -77.62713 17984 ft 366 kts 244°
2026-05-07 01:01 36.41699 -77.65391 17718 ft 360 kts 244°
2026-05-07 01:01 36.40450 -77.68062 17452 ft 354 kts 244°
2026-05-07 01:01 36.39215 -77.70693 17092 ft 351 kts 244°
2026-05-07 01:02 36.37989 -77.73312 16643 ft 352 kts 243°
2026-05-07 01:02 36.36759 -77.75942 16167 ft 353 kts 243°
2026-05-07 01:02 36.35518 -77.78582 15691 ft 354 kts 243°
2026-05-07 01:02 36.34275 -77.81227 15241 ft 355 kts 243°
2026-05-07 01:03 36.33032 -77.83881 14777 ft 356 kts 243°
2026-05-07 01:03 36.31792 -77.86517 14341 ft 351 kts 243°
2026-05-07 01:03 36.30569 -77.89109 13912 ft 346 kts 243°
2026-05-07 01:03 36.29368 -77.91666 13468 ft 341 kts 243°
2026-05-07 01:04 36.28192 -77.94155 13014 ft 336 kts 242°
2026-05-07 01:04 36.27324 -77.96783 12543 ft 328 kts 262°
2026-05-07 01:04 36.27574 -77.99540 12082 ft 326 kts 289°
2026-05-07 01:04 36.28913 -78.01804 11650 ft 333 kts 316°
2026-05-07 01:05 36.31022 -78.03041 11234 ft 346 kts 342°
2026-05-07 01:05 36.33389 -78.03659 10816 ft 343 kts 333°
2026-05-07 01:05 36.35288 -78.05293 10385 ft 329 kts 305°
2026-05-07 01:05 36.36256 -78.07752 10171 ft 314 kts 278°
2026-05-07 01:06 36.36107 -78.10374 10074 ft 303 kts 250°
2026-05-07 01:06 36.34978 -78.12536 10104 ft 296 kts 234°
2026-05-07 01:06 36.33902 -78.14665 10045 ft 290 kts 241°
2026-05-07 01:06 36.32478 -78.16500 9767 ft 309 kts 214°
2026-05-07 01:07 36.30457 -78.17148 9523 ft 307 kts 184°
2026-05-07 01:07 36.28411 -78.16426 9294 ft 309 kts 157°
2026-05-07 01:07 36.26590 -78.15112 9161 ft 292 kts 161°
2026-05-07 01:07 36.24662 -78.14694 9148 ft 279 kts 193°
2026-05-07 01:08 36.22901 -78.15571 8838 ft 269 kts 224°
2026-05-07 01:08 36.21671 -78.17236 8567 ft 259 kts 233°
2026-05-07 01:08 36.20535 -78.18976 8280 ft 258 kts 235°
2026-05-07 01:08 36.19446 -78.20751 8001 ft 258 kts 237°
2026-05-07 01:09 36.18408 -78.22529 7735 ft 258 kts 237°
2026-05-07 01:09 36.17371 -78.24339 7444 ft 257 kts 237°
2026-05-07 01:09 36.16337 -78.26136 7207 ft 255 kts 238°
2026-05-07 01:09 36.15345 -78.27915 7103 ft 246 kts 243°
2026-05-07 01:10 36.14771 -78.29867 7062 ft 243 kts 255°
2026-05-07 01:10 36.14340 -78.31919 7036 ft 248 kts 257°
2026-05-07 01:10 36.13959 -78.34012 7031 ft 250 kts 258°
2026-05-07 01:10 36.13599 -78.36080 7010 ft 242 kts 258°
2026-05-07 01:11 36.13246 -78.38091 7006 ft 236 kts 258°
2026-05-07 01:11 36.12902 -78.40069 7007 ft 235 kts 258°
2026-05-07 01:11 36.12554 -78.42086 7012 ft 245 kts 258°
2026-05-07 01:11 36.12309 -78.44206 7019 ft 253 kts 263°
2026-05-07 01:12 36.12019 -78.46404 6905 ft 266 kts 260°
2026-05-07 01:12 36.11678 -78.48598 6743 ft 250 kts 259°
2026-05-07 01:12 36.11287 -78.50628 6565 ft 235 kts 253°
2026-05-07 01:12 36.10768 -78.52462 6389 ft 223 kts 251°
2026-05-07 01:13 36.09907 -78.53996 6164 ft 221 kts 219°
2026-05-07 01:13 36.08410 -78.54435 5816 ft 232 kts 179°
2026-05-07 01:13 36.06852 -78.53988 5555 ft 225 kts 173°
2026-05-07 01:13 36.05373 -78.53486 5282 ft 215 kts 172°
2026-05-07 01:14 36.03990 -78.52967 5117 ft 199 kts 173°
2026-05-07 01:14 36.02754 -78.52999 4992 ft 163 kts 218°
2026-05-07 01:14 36.02048 -78.53913 5047 ft 143 kts 238°
2026-05-07 01:14 36.01450 -78.54929 5102 ft 153 kts 239°
2026-05-07 01:15 36.00843 -78.56029 5057 ft 157 kts 240°
2026-05-07 01:15 36.00232 -78.57155 5054 ft 159 kts 240°
2026-05-07 01:15 35.99637 -78.58272 5067 ft 154 kts 240°
2026-05-07 01:15 35.99071 -78.59393 5008 ft 152 kts 242°
2026-05-07 01:16 35.98537 -78.60559 4603 ft 158 kts 244°
2026-05-07 01:16 35.98063 -78.61731 4471 ft 145 kts 246°
2026-05-07 01:16 35.97639 -78.62866 4365 ft 152 kts 245°
2026-05-07 01:16 35.97151 -78.64092 3867 ft 159 kts 244°
2026-05-07 01:17 35.96649 -78.65289 3388 ft 156 kts 242°
2026-05-07 01:17 35.96117 -78.66426 3033 ft 154 kts 240°
2026-05-07 01:17 35.95547 -78.67578 2765 ft 155 kts 237°
2026-05-07 01:17 35.94912 -78.68676 2485 ft 156 kts 233°
2026-05-07 01:18 35.94259 -78.69657 2140 ft 140 kts 231°
2026-05-07 01:18 35.93667 -78.70546 1730 ft 133 kts 230°
2026-05-07 01:18 35.93097 -78.71372 1500 ft 125 kts 229°
2026-05-07 01:18 35.92512 -78.72203 1224 ft 131 kts 229°
2026-05-07 01:19 35.91888 -78.73043 1114 ft 135 kts 226°
2026-05-07 01:19 35.91218 -78.73862 1081 ft 136 kts 224°
2026-05-07 01:19 35.90564 -78.74683 988 ft 132 kts 225°
2026-05-07 01:19 35.90127 -78.75215 898 ft 136 kts 224°
2026-05-07 01:20 35.89443 -78.76078 791 ft 146 kts 224°
2026-05-07 01:20 35.88712 -78.76983 654 ft 145 kts 223°
2026-05-07 01:20 35.88001 -78.77841 469 ft 138 kts 224°
2026-05-07 01:20 35.87370 -78.78619 433 ft 110 kts 224°
2026-05-07 01:21 35.87020 -78.79052 418 ft 14 kts 232°
2026-05-07 01:21 35.87016 -78.79106 422 ft 3 kts 318°
2026-05-07 01:21 35.87038 -78.79112 423 ft 5 kts
2026-05-07 01:21 35.87063 -78.79106 424 ft 4 kts 15°
2026-05-07 01:22 35.87092 -78.79095 425 ft 7 kts 16°
2026-05-07 01:22 35.87161 -78.79061 427 ft 13 kts 34°
2026-05-07 01:22 35.87248 -78.78961 429 ft 19 kts 42°
2026-05-07 01:22 35.87350 -78.78844 426 ft 20 kts 44°
2026-05-07 01:23 35.87450 -78.78803 426 ft 9 kts 320°
2026-05-07 01:23 35.87468 -78.78849 423 ft 5 kts 290°
2026-05-07 01:23 35.87472 -78.78860 432 ft 0 kts 289°
2026-05-07 01:23 35.87474 -78.78867 435 ft 1 kts 291°
2026-05-07 01:24 35.87475 -78.78871 435 ft 0 kts 291°